Home   Weather   Lewisville   Past weeks
Flag for USA

Past Weather in Lewisville, Texas, USA — Yesterday and Last 2 Weeks

Now
64 °F

Clear.


Feels Like: 64 °F
Forecast: 82 / 62 °F
Wind: 13 mph from South

Location: Dallas / Addison Airport

Current Time: Oct 19, 2019 at 2:12:55 am

Latest Report: Oct 19, 2019 at 1:35 am


Visibility: 10 mi

Pressure: 29.74 "Hg

Humidity: 62%

Dew Point: 51 °F

Location of LewisvilleLocation

Past Weather in Lewisville — Graph

°F

Lewisville Temperature Yesterday

Maximum temperature yesterday: 77 °F (at 4:47 pm)
Minimum temperature yesterday: 52 °F (at 5:52 am)
Average temperature yesterday: 62 °F

High & Low Weather Summary for the Past Weeks

 TemperatureHumidityPressure
High97 °F (Oct 6, 3:47 pm)99% (Oct 15, 1:55 am)30.32 "Hg (Oct 15, 1:55 am)
Low41 °F (Oct 12, 7:47 am)15% (Oct 12, 12:47 pm)29.73 "Hg (Oct 10, 7:47 pm)
Average67 °F60%30.03 "Hg
* Reported Oct 4 12:15 am — Oct 19 12:35 am, Lewisville. Weather by CustomWeather, © 2019

Note: Actual official high and low records may vary slightly from our data, if they occured in-between our weather recording intervals... More about our weather records

Advertising

Lewisville Weather History for the Previous 24 Hours

Scroll right to see more
 ConditionsComfort  
Time TempWeatherWind HumidityBarometerVisibility
12:35 am
Sat, Oct 19
65 °FClear.13 mph54%29.74 "Hg10 mi
12:15 am65 °FClear.8 mph51%29.74 "Hg10 mi
11:55 pm
Fri, Oct 18
65 °FClear.12 mph50%29.75 "Hg10 mi
11:35 pm65 °FClear.8 mph49%29.75 "Hg10 mi
11:15 pm65 °FClear.9 mph48%29.75 "Hg10 mi
10:55 pm65 °FClear.12 mph47%29.75 "Hg10 mi
10:35 pm66 °FClear.12 mph45%29.76 "Hg10 mi
10:15 pm66 °FClear.10 mph44%29.76 "Hg10 mi
8:47 pm70 °FClear.14 mph33%29.74 "Hg10 mi
7:47 pm72 °FClear.13 mph29%29.73 "Hg10 mi
6:47 pm72 °FSunny.9 mph31%29.73 "Hg10 mi
5:55 pm75 °FSunny.9 mph24%29.74 "Hg10 mi
4:47 pm77 °FSunny.7 mph19%29.74 "Hg10 mi
3:47 pm75 °FSunny.12 mph25%29.75 "Hg10 mi
2:47 pm73 °FSunny.13 mph31%29.79 "Hg10 mi
1:47 pm72 °FSunny.10 mph33%29.81 "Hg10 mi
12:47 pm72 °FMild.5 mph31%29.87 "HgN/A
11:47 am66 °FSunny.9 mph46%29.89 "Hg10 mi
10:47 am64 °FSunny.10 mph56%29.92 "Hg10 mi
9:47 am59 °FSunny.8 mph72%29.93 "Hg10 mi
8:47 am55 °FSunny.8 mph77%29.92 "Hg10 mi
7:53 am52 °FSunny.6 mph88%29.92 "Hg10 mi
6:50 am54 °FClear.8 mph82%29.91 "Hg10 mi
5:52 am52 °FClear.8 mph82%29.91 "Hg10 mi
5:35 am53 °FClear.6 mph83%29.93 "Hg10 mi
4:55 am53 °FClear.8 mph83%29.93 "Hg10 mi
4:35 am53 °FClear.10 mph79%29.92 "Hg10 mi
4:15 am53 °FClear.7 mph79%29.93 "Hg10 mi
3:35 am53 °FClear.7 mph79%29.93 "Hg10 mi
3:15 am53 °FClear.8 mph77%29.93 "Hg10 mi
2:55 am54 °FClear.7 mph75%29.93 "Hg10 mi
2:35 am55 °FClear.7 mph74%29.92 "Hg10 mi
2:15 am55 °FClear.6 mph72%29.92 "Hg10 mi
Weather by CustomWeather, © 2019

See weather overview